Weather History for Pinedale, WY

Change the Weather History Date:

Friday, April 26, 2013

  Actual Average (KBPI) Record (KBPI)
Temperature  
Mean Temperature 40 °F 40 °F  
Max Temperature 59 °F 56 °F 71 °F (2001)
Min Temperature 21 °F 24 °F 9 °F (1984)
Degree Days  
Heating Degree Days 25 25  
Month to date heating degree days 738  
Since 1 July heating degree days 9433  
Cooling Degree Days 0 0  
Month to date cooling degree days 0  
Year to date cooling degree days 0  
Moisture  
Dew Point 17 °F    
Average Humidity 48    
Maximum Humidity 93    
Minimum Humidity 16    
Precipitation  
Precipitation 0.00 in 0.02 in 0.24 in (2002)
Month to date precipitation 0.43  
Year to date precipitation 1.53  
Sea Level Pressure  
Sea Level Pressure 30.25 in    
Wind  
Wind Speed 6 mph (WNW)    
Max Wind Speed 18 mph    
Max Gust Speed 36 mph    
Visibility 10 miles    
Events      
T = Trace of Precipitation, MM = Missing Value Source: NWS Daily Summary

Daily Weather History Graph

Daily Weather History Graph

Search for Another Location

Airport:

Trip Planner

Search our weather history database for the weather conditions in past years. The results will help you decide how hot, cold, wet, or windy it might be!

Date:

Astronomy

Apr. 26, 2013 Rise Set
Actual Time 6:20 AM MDT 8:14 PM MDT
Civil Twilight 5:49 AM MDT 8:45 PM MDT
Nautical Twilight 5:12 AM MDT 9:22 PM MDT
Astronomical Twilight 4:32 AM MDT 10:02 PM MDT
Moon 9:43 PM MDT (4/26) 6:49 AM MDT (4/26)
Length of Visible Light 14h 55m
Length of Day
13h 54m
Full, 99% of the Moon is Illuminated
Apr 26
Full
May 2
Last Quarter
May 9
New
May 17
First Quarter
May 24
Full

Hourly Weather History & Observations

Time (MDT) Temp. Windchill Dew Point Humidity Pressure Visibility Wind Dir Wind Speed Gust Speed Precip Events Conditions
12:15 AM 28.4 °F 24.6 °F 17.6 °F 64% 30.15 in 10.0 mi WNW 3.5 mph - N/A   Scattered Clouds
12:35 AM 26.6 °F 22.6 °F 19.4 °F 74% 30.15 in 10.0 mi NNW 3.5 mph - N/A   Scattered Clouds
1:15 AM 23.0 °F 15.8 °F 17.6 °F 80% 30.16 in 10.0 mi WNW 5.8 mph - N/A   Clear
1:35 AM 23.0 °F 17.0 °F 17.6 °F 80% 30.16 in 10.0 mi WNW 4.6 mph - N/A   Clear
1:55 AM 23.0 °F - 17.6 °F 80% 30.16 in 10.0 mi Calm Calm - N/A   Clear
2:15 AM 24.8 °F - 17.6 °F 74% 30.16 in 10.0 mi Calm Calm - N/A   Clear
2:35 AM 24.8 °F 20.5 °F 17.6 °F 74% 30.16 in 10.0 mi NNW 3.5 mph - N/A   Clear
2:55 AM 23.0 °F 15.8 °F 17.6 °F 80% 30.16 in 10.0 mi WNW 5.8 mph - N/A   Clear
3:15 AM 23.0 °F 17.0 °F 17.6 °F 80% 30.17 in 10.0 mi WNW 4.6 mph - N/A   Clear
3:35 AM 23.0 °F 15.8 °F 17.6 °F 80% 30.17 in 10.0 mi NW 5.8 mph - N/A   Scattered Clouds
3:55 AM 21.2 °F 13.6 °F 17.6 °F 86% 30.18 in 10.0 mi NNW 5.8 mph - N/A   Scattered Clouds
4:15 AM 23.0 °F 15.8 °F 17.6 °F 80% 30.18 in 10.0 mi NW 5.8 mph - N/A   Scattered Clouds
4:35 AM 21.2 °F 13.6 °F 17.6 °F 86% 30.19 in 10.0 mi West 5.8 mph - N/A   Scattered Clouds
4:55 AM 21.2 °F 16.4 °F 17.6 °F 86% 30.20 in 10.0 mi WNW 3.5 mph - N/A   Scattered Clouds
5:15 AM 21.2 °F - 17.6 °F 86% 30.21 in 10.0 mi Calm Calm - N/A   Clear
5:35 AM 21.2 °F 16.4 °F 17.6 °F 86% 30.21 in 10.0 mi WSW 3.5 mph - N/A   Clear
5:55 AM 21.2 °F 16.4 °F 19.4 °F 93% 30.22 in 10.0 mi West 3.5 mph - N/A   Clear
6:15 AM 21.2 °F 14.9 °F 17.6 °F 86% 30.23 in 10.0 mi West 4.6 mph - N/A   Clear
6:35 AM 21.2 °F 14.9 °F 19.4 °F 93% 30.24 in 10.0 mi WNW 4.6 mph - N/A   Clear
6:55 AM 23.0 °F 14.7 °F 19.4 °F 86% 30.24 in 10.0 mi West 6.9 mph - N/A   Clear
7:15 AM 24.8 °F 20.5 °F 19.4 °F 80% 30.24 in 10.0 mi NW 3.5 mph - N/A   Clear
7:35 AM 28.4 °F 23.3 °F 21.2 °F 74% 30.25 in 10.0 mi WNW 4.6 mph - N/A   Clear
7:55 AM 30.2 °F 23.4 °F 21.2 °F 69% 30.25 in 10.0 mi WNW 6.9 mph - N/A   Clear
8:15 AM 32.0 °F 25.6 °F 21.2 °F 64% 30.26 in 10.0 mi NW 6.9 mph - N/A   Clear
8:35 AM 33.8 °F 30.8 °F 21.2 °F 60% 30.26 in 10.0 mi WNW 3.5 mph - N/A   Clear
8:55 AM 37.4 °F 34.9 °F 19.4 °F 48% 30.27 in 10.0 mi NW 3.5 mph - N/A   Clear
9:15 AM 39.2 °F - 19.4 °F 45% 30.27 in 10.0 mi Calm Calm - N/A   Clear
9:35 AM 42.8 °F - 17.6 °F 36% 30.27 in 10.0 mi Calm Calm - N/A   Clear
9:55 AM 44.6 °F 41.4 °F 15.8 °F 31% 30.27 in 10.0 mi WNW 5.8 mph - N/A   Clear
10:15 AM 46.4 °F 44.3 °F 14.0 °F 27% 30.27 in 10.0 mi NW 4.6 mph - N/A   Clear
10:35 AM 48.2 °F - 14.0 °F 25% 30.28 in 10.0 mi Calm Calm - N/A   Clear
10:55 AM 50.0 °F - 15.8 °F 26% 30.29 in 10.0 mi WNW 5.8 mph - N/A   Clear
11:15 AM 51.8 °F - 15.8 °F 24% 30.29 in 10.0 mi SW 6.9 mph - N/A   Clear
11:35 AM 51.8 °F - 14.0 °F 22% 30.29 in 10.0 mi West 6.9 mph - N/A   Clear
11:55 AM 51.8 °F - 15.8 °F 24% 30.29 in 10.0 mi NW 3.5 mph - N/A   Clear
12:15 PM 53.6 °F - 14.0 °F 21% 30.28 in 10.0 mi West 11.5 mph 17.3 mph N/A   Clear
12:35 PM 55.4 °F - 14.0 °F 20% 30.27 in 10.0 mi NW 10.4 mph - N/A   Clear
12:55 PM 55.4 °F - 14.0 °F 20% 30.27 in 10.0 mi NW 15.0 mph 24.2 mph N/A   Clear
1:15 PM 55.4 °F - 12.2 °F 18% 30.26 in 10.0 mi NW 18.4 mph 21.9 mph N/A   Clear
1:35 PM 55.4 °F - 14.0 °F 20% 30.26 in 10.0 mi WNW 10.4 mph 24.2 mph N/A   Clear
1:55 PM 55.4 °F - 14.0 °F 20% 30.26 in 10.0 mi NW 12.7 mph 16.1 mph N/A   Clear
2:15 PM 57.2 °F - 14.0 °F 18% 30.26 in 10.0 mi WNW 18.4 mph 23.0 mph N/A   Clear
2:35 PM 57.2 °F - 14.0 °F 18% 30.27 in 10.0 mi WNW 10.4 mph 25.3 mph N/A   Clear
2:55 PM 57.2 °F - 12.2 °F 17% 30.27 in 10.0 mi WNW 12.7 mph 25.3 mph N/A   Clear
3:15 PM 57.2 °F - 14.0 °F 18% 30.27 in 10.0 mi NW 12.7 mph 23.0 mph N/A   Clear
3:35 PM 59.0 °F - 12.2 °F 16% 30.26 in 10.0 mi WNW 11.5 mph 23.0 mph N/A   Clear
3:55 PM 57.2 °F - 12.2 °F 17% 30.26 in 10.0 mi WNW 11.5 mph 18.4 mph N/A   Clear
4:15 PM 57.2 °F - 12.2 °F 17% 30.26 in 10.0 mi West 11.5 mph 35.7 mph N/A   Clear
4:35 PM 59.0 °F - 12.2 °F 16% 30.26 in 10.0 mi WNW 15.0 mph 23.0 mph N/A   Clear
4:55 PM 57.2 °F - 12.2 °F 17% 30.26 in 10.0 mi West 8.1 mph 24.2 mph N/A   Clear
5:15 PM 57.2 °F - 12.2 °F 17% 30.26 in 10.0 mi West 15.0 mph 21.9 mph N/A   Clear
5:35 PM 57.2 °F - 12.2 °F 17% 30.26 in 10.0 mi NW 16.1 mph 26.5 mph N/A   Clear
5:55 PM 55.4 °F - 12.2 °F 18% 30.26 in 10.0 mi NW 13.8 mph 20.7 mph N/A   Clear
6:15 PM 57.2 °F - 14.0 °F 18% 30.26 in 10.0 mi NW 12.7 mph 19.6 mph N/A   Clear
6:35 PM 55.4 °F - 15.8 °F 21% 30.26 in 10.0 mi NW 13.8 mph 18.4 mph N/A   Clear
6:55 PM 55.4 °F - 15.8 °F 21% 30.26 in 10.0 mi NW 12.7 mph - N/A   Clear
7:15 PM 55.4 °F - 17.6 °F 23% 30.26 in 10.0 mi West 10.4 mph - N/A   Clear
7:35 PM 53.6 °F - 17.6 °F 24% 30.26 in 10.0 mi WNW 11.5 mph - N/A   Clear
7:55 PM 51.8 °F - 19.4 °F 28% 30.26 in 10.0 mi WNW 6.9 mph - N/A   Clear
8:15 PM 46.4 °F 42.4 °F 19.4 °F 34% 30.27 in 10.0 mi West 8.1 mph - N/A   Scattered Clouds
8:35 PM 44.6 °F 39.7 °F 19.4 °F 37% 30.27 in 10.0 mi West 9.2 mph - N/A   Mostly Cloudy
8:55 PM 44.6 °F 39.2 °F 21.2 °F 39% 30.29 in 10.0 mi West 10.4 mph - N/A   Overcast
9:15 PM 39.2 °F 33.6 °F 21.2 °F 49% 30.29 in 10.0 mi NNW 8.1 mph - N/A   Scattered Clouds
9:35 PM 37.4 °F 32.1 °F 23.0 °F 56% 30.30 in 10.0 mi NW 6.9 mph - N/A   Clear
9:55 PM 37.4 °F 30.3 °F 23.0 °F 56% 30.31 in 10.0 mi WNW 10.4 mph - N/A   Clear
10:15 PM 35.6 °F 28.6 °F 23.0 °F 60% 30.31 in 10.0 mi West 9.2 mph - N/A   Clear
10:35 PM 35.6 °F 29.9 °F 23.0 °F 60% 30.32 in 10.0 mi WNW 6.9 mph - N/A   Clear
10:55 PM 33.8 °F 27.0 °F 23.0 °F 65% 30.32 in 10.0 mi WNW 8.1 mph - N/A   Clear
11:15 PM 32.0 °F 26.4 °F 23.0 °F 69% 30.32 in 10.0 mi NW 5.8 mph - N/A   Clear
11:35 PM 32.0 °F 24.8 °F 23.0 °F 69% 30.32 in 10.0 mi WNW 8.1 mph - N/A   Clear
11:55 PM 30.2 °F 26.7 °F 23.0 °F 75% 30.32 in 10.0 mi NW 3.5 mph - N/A   Clear